owner,sensor,date,latitude,longitude,vertical_datum,wind_speed,wind_to_direction,wind_speed_of_gust,qcFlag 
NDBC,ioos:station:NOAA.NDBC:SRST2:1,2016-04-01T00:00:00Z,29.6830,-94.0330,9.1,4.1,210.0,5.1,'1111122,1111122,1111122' 
NDBC,ioos:station:NOAA.NDBC:SRST2:1,2016-04-01T01:00:00Z,29.6830,-94.0330,9.1,3.6,210.0,4.6,'1111122,1111122,1111122' 
NDBC,ioos:station:NOAA.NDBC:SRST2:1,2016-04-01T02:00:00Z,29.6830,-94.0330,9.1,4.1,220.0,4.6,'1111122,1111122,1111122' 
NDBC,ioos:station:NOAA.NDBC:SRST2:1,2016-04-01T03:00:00Z,29.6830,-94.0330,9.1,3.1,230.0,3.6,'1111122,1111122,1111122' 
NDBC,ioos:station:NOAA.NDBC:SRST2:1,2016-04-01T04:00:00Z,29.6830,-94.0330,9.1,1.0,170.0,1.0,'1111122,1111122,1111122' 
NDBC,ioos:station:NOAA.NDBC:SRST2:1,2016-04-01T05:00:00Z,29.6830,-94.0330,9.1,0.0,-9999.0,0.5,'1114422,1111122,1111122' 
NDBC,ioos:station:NOAA.NDBC:SRST2:1,2016-04-01T06:00:00Z,29.6830,-94.0330,9.1,1.0,20.0,1.0,'1111122,1111122,1111122' 
NDBC,ioos:station:NOAA.NDBC:SRST2:1,2016-04-01T07:00:00Z,29.6830,-94.0330,9.1,0.5,330.0,1.0,'1111122,1111122,1111122' 
NDBC,ioos:station:NOAA.NDBC:SRST2:1,2016-04-01T09:00:00Z,29.6830,-94.0330,9.1,3.6,360.0,4.1,'1111122,1111122,1111122' 
NDBC,ioos:station:NOAA.NDBC:SRST2:1,2016-04-01T10:00:00Z,29.6830,-94.0330,9.1,6.2,340.0,7.7,'1111122,1111122,1111122' 
NDBC,ioos:station:NOAA.NDBC:SRST2:1,2016-04-01T11:00:00Z,29.6830,-94.0330,9.1,8.8,360.0,10.3,'1111122,1111122,1111122' 
NDBC,ioos:station:NOAA.NDBC:SRST2:1,2016-04-01T12:00:00Z,29.6830,-94.0330,9.1,12.9,40.0,16.5,'1111122,1111122,1111122' 
NDBC,ioos:station:NOAA.NDBC:SRST2:1,2016-04-01T13:00:00Z,29.6830,-94.0330,9.1,10.8,50.0,13.4,'1111122,1111122,1111122' 
NDBC,ioos:station:NOAA.NDBC:SRST2:1,2016-04-01T14:00:00Z,29.6830,-94.0330,9.1,7.7,30.0,8.8,'1111122,1111122,1111122' 
NDBC,ioos:station:NOAA.NDBC:SRST2:1,2016-04-01T15:00:00Z,29.6830,-94.0330,9.1,11.3,20.0,13.4,'1111122,1111122,1111122' 
NDBC,ioos:station:NOAA.NDBC:SRST2:1,2016-04-01T16:00:00Z,29.6830,-94.0330,9.1,9.8,30.0,11.8,'1111122,1111122,1111122' 
NDBC,ioos:station:NOAA.NDBC:SRST2:1,2016-04-01T17:00:00Z,29.6830,-94.0330,9.1,8.2,20.0,10.8,'1111122,1111122,1111122' 
NDBC,ioos:station:NOAA.NDBC:SRST2:1,2016-04-01T18:00:00Z,29.6830,-94.0330,9.1,5.7,10.0,7.2,'1111122,1111122,1111122' 
NDBC,ioos:station:NOAA.NDBC:SRST2:1,2016-04-01T19:00:00Z,29.6830,-94.0330,9.1,9.8,20.0,11.8,'1111122,1111122,1111122' 
NDBC,ioos:station:NOAA.NDBC:SRST2:1,2016-04-01T20:00:00Z,29.6830,-94.0330,9.1,8.8,30.0,10.3,'1111122,1111122,1111122' 
NDBC,ioos:station:NOAA.NDBC:SRST2:1,2016-04-01T21:00:00Z,29.6830,-94.0330,9.1,11.8,10.0,13.9,'1111122,1111122,1111122' 
NDBC,ioos:station:NOAA.NDBC:SRST2:1,2016-04-01T22:00:00Z,29.6830,-94.0330,9.1,12.4,20.0,16.0,'1111122,1111122,1111122' 
NDBC,ioos:station:NOAA.NDBC:SRST2:1,2016-04-01T23:00:00Z,29.6830,-94.0330,9.1,10.3,30.0,12.9,'1111122,1111122,1111122' 
NDBC,ioos:station:NOAA.NDBC:SRST2:1,2016-04-02T00:00:00Z,29.6830,-94.0330,9.1,7.7,20.0,10.3,'1111122,1111122,1111122' 
NDBC,ioos:station:NOAA.NDBC:SRST2:1,2016-04-02T01:00:00Z,29.6830,-94.0330,9.1,6.7,10.0,7.7,'1111122,1111122,1111122' 
NDBC,ioos:station:NOAA.NDBC:SRST2:1,2016-04-02T02:00:00Z,29.6830,-94.0330,9.1,5.7,360.0,7.2,'1111122,1111122,1111122' 
NDBC,ioos:station:NOAA.NDBC:SRST2:1,2016-04-02T03:00:00Z,29.6830,-94.0330,9.1,7.2,360.0,9.3,'1111122,1111122,1111122' 
NDBC,ioos:station:NOAA.NDBC:SRST2:1,2016-04-02T04:00:00Z,29.6830,-94.0330,9.1,7.2,360.0,9.3,'1111122,1111122,1111122' 
NDBC,ioos:station:NOAA.NDBC:SRST2:1,2016-04-02T05:00:00Z,29.6830,-94.0330,9.1,7.2,350.0,8.2,'1111122,1111122,1111122' 
NDBC,ioos:station:NOAA.NDBC:SRST2:1,2016-04-02T06:00:00Z,29.6830,-94.0330,9.1,5.7,350.0,7.2,'1111122,1111122,1111122' 
NDBC,ioos:station:NOAA.NDBC:SRST2:1,2016-04-02T07:00:00Z,29.6830,-94.0330,9.1,5.7,360.0,6.7,'1111122,1111122,1111122' 
NDBC,ioos:station:NOAA.NDBC:SRST2:1,2016-04-02T08:00:00Z,29.6830,-94.0330,9.1,4.1,350.0,5.1,'1111122,1111122,1111122' 
NDBC,ioos:station:NOAA.NDBC:SRST2:1,2016-04-02T09:00:00Z,29.6830,-94.0330,9.1,4.1,330.0,4.6,'1111122,1111122,1111122' 
NDBC,ioos:station:NOAA.NDBC:SRST2:1,2016-04-02T10:00:00Z,29.6830,-94.0330,9.1,4.1,340.0,5.7,'1111122,1111122,1111122' 
NDBC,ioos:station:NOAA.NDBC:SRST2:1,2016-04-02T11:00:00Z,29.6830,-94.0330,9.1,4.1,340.0,5.7,'1111122,1111122,1111122' 
NDBC,ioos:station:NOAA.NDBC:SRST2:1,2016-04-02T12:00:00Z,29.6830,-94.0330,9.1,4.6,330.0,6.2,'1111122,1111122,1111122' 
NDBC,ioos:station:NOAA.NDBC:SRST2:1,2016-04-02T13:00:00Z,29.6830,-94.0330,9.1,4.6,340.0,6.2,'1111122,1111122,1111122' 
NDBC,ioos:station:NOAA.NDBC:SRST2:1,2016-04-02T14:00:00Z,29.6830,-94.0330,9.1,5.7,330.0,7.2,'1111122,1111122,1111122' 
NDBC,ioos:station:NOAA.NDBC:SRST2:1,2016-04-02T15:00:00Z,29.6830,-94.0330,9.1,5.1,340.0,6.7,'1111122,1111122,1111122' 
NDBC,ioos:station:NOAA.NDBC:SRST2:1,2016-04-02T16:00:00Z,29.6830,-94.0330,9.1,6.2,350.0,7.7,'1111122,1111122,1111122' 
NDBC,ioos:station:NOAA.NDBC:SRST2:1,2016-04-02T17:00:00Z,29.6830,-94.0330,9.1,7.7,360.0,9.8,'1111122,1111122,1111122' 
NDBC,ioos:station:NOAA.NDBC:SRST2:1,2016-04-02T18:00:00Z,29.6830,-94.0330,9.1,6.2,360.0,9.3,'1111122,1111122,1111122' 
NDBC,ioos:station:NOAA.NDBC:SRST2:1,2016-04-02T19:00:00Z,29.6830,-94.0330,9.1,8.2,340.0,10.8,'1111122,1111122,1111122' 
NDBC,ioos:station:NOAA.NDBC:SRST2:1,2016-04-02T20:00:00Z,29.6830,-94.0330,9.1,8.2,350.0,10.8,'1111122,1111122,1111122' 
NDBC,ioos:station:NOAA.NDBC:SRST2:1,2016-04-02T21:00:00Z,29.6830,-94.0330,9.1,6.7,340.0,11.3,'1111122,1111122,1111122' 
NDBC,ioos:station:NOAA.NDBC:SRST2:1,2016-04-02T22:00:00Z,29.6830,-94.0330,9.1,6.7,340.0,8.8,'1111122,1111122,1111122' 
NDBC,ioos:station:NOAA.NDBC:SRST2:1,2016-04-02T23:00:00Z,29.6830,-94.0330,9.1,5.1,340.0,7.2,'1111122,1111122,1111122' 
NDBC,ioos:station:NOAA.NDBC:SRST2:1,2016-04-03T00:00:00Z,29.6830,-94.0330,9.1,3.1,340.0,3.6,'1111122,1111122,1111122' 
NDBC,ioos:station:NOAA.NDBC:SRST2:1,2016-04-03T01:00:00Z,29.6830,-94.0330,9.1,2.6,300.0,3.1,'1111122,1111122,1111122' 
NDBC,ioos:station:NOAA.NDBC:SRST2:1,2016-04-03T02:00:00Z,29.6830,-94.0330,9.1,2.1,350.0,2.1,'1111122,1111122,1111122' 
NDBC,ioos:station:NOAA.NDBC:SRST2:1,2016-04-03T03:00:00Z,29.6830,-94.0330,9.1,3.6,330.0,4.1,'1111122,1111122,1111122' 
NDBC,ioos:station:NOAA.NDBC:SRST2:1,2016-04-03T04:00:00Z,29.6830,-94.0330,9.1,3.6,330.0,3.6,'1111122,1111122,1111122' 
NDBC,ioos:station:NOAA.NDBC:SRST2:1,2016-04-03T05:00:00Z,29.6830,-94.0330,9.1,2.6,360.0,3.6,'1111122,1111122,1111122' 
NDBC,ioos:station:NOAA.NDBC:SRST2:1,2016-04-03T06:00:00Z,29.6830,-94.0330,9.1,3.1,360.0,3.1,'1111122,1111122,1111122' 
NDBC,ioos:station:NOAA.NDBC:SRST2:1,2016-04-03T07:00:00Z,29.6830,-94.0330,9.1,2.6,10.0,2.6,'1111122,1111122,1111122' 
NDBC,ioos:station:NOAA.NDBC:SRST2:1,2016-04-03T08:00:00Z,29.6830,-94.0330,9.1,2.1,20.0,2.1,'1111122,1111122,1111122' 
NDBC,ioos:station:NOAA.NDBC:SRST2:1,2016-04-03T09:00:00Z,29.6830,-94.0330,9.1,2.6,10.0,2.6,'1111122,1111122,1111122' 
NDBC,ioos:station:NOAA.NDBC:SRST2:1,2016-04-03T10:00:00Z,29.6830,-94.0330,9.1,2.1,20.0,2.1,'1111122,1111122,1111122' 
NDBC,ioos:station:NOAA.NDBC:SRST2:1,2016-04-03T11:00:00Z,29.6830,-94.0330,9.1,1.5,350.0,2.1,'1111122,1111122,1111122' 
NDBC,ioos:station:NOAA.NDBC:SRST2:1,2016-04-03T12:00:00Z,29.6830,-94.0330,9.1,3.1,360.0,3.1,'1111122,1111122,1111122' 
NDBC,ioos:station:NOAA.NDBC:SRST2:1,2016-04-03T13:00:00Z,29.6830,-94.0330,9.1,1.5,20.0,2.1,'1111122,1111122,1111122' 
NDBC,ioos:station:NOAA.NDBC:SRST2:1,2016-04-03T14:00:00Z,29.6830,-94.0330,9.1,1.5,50.0,2.1,'1111122,1111122,1111122' 
NDBC,ioos:station:NOAA.NDBC:SRST2:1,2016-04-03T15:00:00Z,29.6830,-94.0330,9.1,2.6,140.0,3.6,'1111122,1111122,1111122' 
NDBC,ioos:station:NOAA.NDBC:SRST2:1,2016-04-03T16:00:00Z,29.6830,-94.0330,9.1,3.1,150.0,3.6,'1111122,1111122,1111122' 
NDBC,ioos:station:NOAA.NDBC:SRST2:1,2016-04-03T17:00:00Z,29.6830,-94.0330,9.1,3.6,160.0,4.6,'1111122,1111122,1111122' 
NDBC,ioos:station:NOAA.NDBC:SRST2:1,2016-04-03T18:00:00Z,29.6830,-94.0330,9.1,3.6,160.0,4.6,'1111122,1111122,1111122' 
NDBC,ioos:station:NOAA.NDBC:SRST2:1,2016-04-03T19:00:00Z,29.6830,-94.0330,9.1,3.6,180.0,4.6,'1111122,1111122,1111122' 
NDBC,ioos:station:NOAA.NDBC:SRST2:1,2016-04-03T20:00:00Z,29.6830,-94.0330,9.1,3.6,160.0,4.1,'1111122,1111122,1111122' 
NDBC,ioos:station:NOAA.NDBC:SRST2:1,2016-04-03T21:00:00Z,29.6830,-94.0330,9.1,4.1,180.0,5.1,'1111122,1111122,1111122' 
NDBC,ioos:station:NOAA.NDBC:SRST2:1,2016-04-03T22:00:00Z,29.6830,-94.0330,9.1,3.1,180.0,4.1,'1111122,1111122,1111122' 
NDBC,ioos:station:NOAA.NDBC:SRST2:1,2016-04-03T23:00:00Z,29.6830,-94.0330,9.1,3.1,190.0,3.6,'1111122,1111122,1111122' 
NDBC,ioos:station:NOAA.NDBC:SRST2:1,2016-04-04T00:00:00Z,29.6830,-94.0330,9.1,3.6,190.0,4.1,'1111122,1111122,1111122' 
NDBC,ioos:station:NOAA.NDBC:SRST2:1,2016-04-04T01:00:00Z,29.6830,-94.0330,9.1,3.6,180.0,5.1,'1111122,1111122,1111122' 
NDBC,ioos:station:NOAA.NDBC:SRST2:1,2016-04-04T02:00:00Z,29.6830,-94.0330,9.1,3.6,180.0,4.1,'1111122,1111122,1111122' 
NDBC,ioos:station:NOAA.NDBC:SRST2:1,2016-04-04T03:00:00Z,29.6830,-94.0330,9.1,4.1,190.0,5.1,'1111122,1111122,1111122' 
NDBC,ioos:station:NOAA.NDBC:SRST2:1,2016-04-04T04:00:00Z,29.6830,-94.0330,9.1,4.1,200.0,5.1,'1111122,1111122,1111122' 
NDBC,ioos:station:NOAA.NDBC:SRST2:1,2016-04-04T05:00:00Z,29.6830,-94.0330,9.1,5.1,210.0,6.2,'1111122,1111122,1111122' 
NDBC,ioos:station:NOAA.NDBC:SRST2:1,2016-04-04T06:00:00Z,29.6830,-94.0330,9.1,4.1,210.0,5.1,'1111122,1111122,1111122' 
NDBC,ioos:station:NOAA.NDBC:SRST2:1,2016-04-04T07:00:00Z,29.6830,-94.0330,9.1,4.1,230.0,5.1,'1111122,1111122,1111122' 
NDBC,ioos:station:NOAA.NDBC:SRST2:1,2016-04-04T08:00:00Z,29.6830,-94.0330,9.1,3.6,220.0,4.6,'1111122,1111122,1111122' 
NDBC,ioos:station:NOAA.NDBC:SRST2:1,2016-04-04T09:00:00Z,29.6830,-94.0330,9.1,3.6,230.0,4.6,'1111122,1111122,1111122' 
NDBC,ioos:station:NOAA.NDBC:SRST2:1,2016-04-04T10:00:00Z,29.6830,-94.0330,9.1,3.1,240.0,3.6,'1111122,1111122,1111122' 
NDBC,ioos:station:NOAA.NDBC:SRST2:1,2016-04-04T11:00:00Z,29.6830,-94.0330,9.1,3.1,260.0,3.6,'1111122,1111122,1111122' 
NDBC,ioos:station:NOAA.NDBC:SRST2:1,2016-04-04T12:00:00Z,29.6830,-94.0330,9.1,3.1,280.0,3.1,'1111122,1111122,1111122' 
NDBC,ioos:station:NOAA.NDBC:SRST2:1,2016-04-04T13:00:00Z,29.6830,-94.0330,9.1,1.5,290.0,1.5,'1111122,1111122,1111122' 
NDBC,ioos:station:NOAA.NDBC:SRST2:1,2016-04-04T14:00:00Z,29.6830,-94.0330,9.1,2.1,270.0,2.6,'1111122,1111122,1111122' 
NDBC,ioos:station:NOAA.NDBC:SRST2:1,2016-04-04T15:00:00Z,29.6830,-94.0330,9.1,3.6,200.0,4.6,'1111122,1111122,1111122' 
NDBC,ioos:station:NOAA.NDBC:SRST2:1,2016-04-04T16:00:00Z,29.6830,-94.0330,9.1,4.1,210.0,4.6,'1111122,1111122,1111122' 
NDBC,ioos:station:NOAA.NDBC:SRST2:1,2016-04-04T17:00:00Z,29.6830,-94.0330,9.1,5.1,200.0,5.7,'1111122,1111122,1111122' 
NDBC,ioos:station:NOAA.NDBC:SRST2:1,2016-04-04T18:00:00Z,29.6830,-94.0330,9.1,6.2,210.0,7.2,'1111122,1111122,1111122' 
NDBC,ioos:station:NOAA.NDBC:SRST2:1,2016-04-04T19:00:00Z,29.6830,-94.0330,9.1,5.7,210.0,6.7,'1111122,1111122,1111122' 
NDBC,ioos:station:NOAA.NDBC:SRST2:1,2016-04-04T20:00:00Z,29.6830,-94.0330,9.1,6.2,210.0,7.7,'1111122,1111122,1111122' 
NDBC,ioos:station:NOAA.NDBC:SRST2:1,2016-04-04T21:00:00Z,29.6830,-94.0330,9.1,7.2,210.0,8.2,'1111122,1111122,1111122' 
NDBC,ioos:station:NOAA.NDBC:SRST2:1,2016-04-04T22:00:00Z,29.6830,-94.0330,9.1,7.2,210.0,8.2,'1111122,1111122,1111122' 
NDBC,ioos:station:NOAA.NDBC:SRST2:1,2016-04-04T23:00:00Z,29.6830,-94.0330,9.1,6.2,220.0,7.7,'1111122,1111122,1111122' 
NDBC,ioos:station:NOAA.NDBC:SRST2:1,2016-04-05T00:00:00Z,29.6830,-94.0330,9.1,4.6,210.0,6.2,'1111122,1111122,1111122' 
NDBC,ioos:station:NOAA.NDBC:SRST2:1,2016-04-05T01:00:00Z,29.6830,-94.0330,9.1,5.1,210.0,6.7,'1111122,1111122,1111122' 
NDBC,ioos:station:NOAA.NDBC:SRST2:1,2016-04-05T02:00:00Z,29.6830,-94.0330,9.1,4.1,220.0,5.1,'1111122,1111122,1111122' 
NDBC,ioos:station:NOAA.NDBC:SRST2:1,2016-04-05T03:00:00Z,29.6830,-94.0330,9.1,3.6,230.0,5.1,'1111122,1111122,1111122' 
NDBC,ioos:station:NOAA.NDBC:SRST2:1,2016-04-05T04:00:00Z,29.6830,-94.0330,9.1,4.1,220.0,5.1,'1111122,1111122,1111122' 
NDBC,ioos:station:NOAA.NDBC:SRST2:1,2016-04-05T05:00:00Z,29.6830,-94.0330,9.1,3.6,220.0,4.6,'1111122,1111122,1111122' 
NDBC,ioos:station:NOAA.NDBC:SRST2:1,2016-04-05T06:00:00Z,29.6830,-94.0330,9.1,3.6,240.0,4.6,'1111122,1111122,1111122' 
NDBC,ioos:station:NOAA.NDBC:SRST2:1,2016-04-05T07:00:00Z,29.6830,-94.0330,9.1,3.1,270.0,3.1,'1111122,1111122,1111122' 
NDBC,ioos:station:NOAA.NDBC:SRST2:1,2016-04-05T08:00:00Z,29.6830,-94.0330,9.1,3.6,270.0,3.6,'1111122,1111122,1111122' 
NDBC,ioos:station:NOAA.NDBC:SRST2:1,2016-04-05T09:00:00Z,29.6830,-94.0330,9.1,3.1,270.0,3.6,'1111122,1111122,1111122' 
NDBC,ioos:station:NOAA.NDBC:SRST2:1,2016-04-05T18:00:00Z,29.6830,-94.0330,9.1,4.6,200.0,5.7,'1111122,1111122,1111122' 
NDBC,ioos:station:NOAA.NDBC:SRST2:1,2016-04-05T19:00:00Z,29.6830,-94.0330,9.1,4.6,200.0,5.7,'1111122,1111122,1111122' 
NDBC,ioos:station:NOAA.NDBC:SRST2:1,2016-04-05T20:00:00Z,29.6830,-94.0330,9.1,4.6,200.0,5.7,'1111122,1111122,1111122' 
NDBC,ioos:station:NOAA.NDBC:SRST2:1,2016-04-05T21:00:00Z,29.6830,-94.0330,9.1,4.6,200.0,5.7,'1111122,1111122,1111122' 
NDBC,ioos:station:NOAA.NDBC:SRST2:1,2016-04-05T22:00:00Z,29.6830,-94.0330,9.1,4.6,200.0,6.2,'1111122,1111122,1111122' 
NDBC,ioos:station:NOAA.NDBC:SRST2:1,2016-04-05T23:00:00Z,29.6830,-94.0330,9.1,4.6,200.0,5.1,'1111122,1111122,1111122' 
NDBC,ioos:station:NOAA.NDBC:SRST2:1,2016-04-06T00:00:00Z,29.6830,-94.0330,9.1,4.6,190.0,5.1,'1111122,1111122,1111122' 
NDBC,ioos:station:NOAA.NDBC:SRST2:1,2016-04-06T01:00:00Z,29.6830,-94.0330,9.1,3.1,190.0,3.6,'1111122,1111122,1111122' 
NDBC,ioos:station:NOAA.NDBC:SRST2:1,2016-04-06T02:00:00Z,29.6830,-94.0330,9.1,3.6,170.0,4.1,'1111122,1111122,1111122' 
NDBC,ioos:station:NOAA.NDBC:SRST2:1,2016-04-06T03:00:00Z,29.6830,-94.0330,9.1,4.1,160.0,4.6,'1111122,1111122,1111122' 
NDBC,ioos:station:NOAA.NDBC:SRST2:1,2016-04-06T04:00:00Z,29.6830,-94.0330,9.1,5.1,170.0,6.7,'1111122,1111122,1111122' 
NDBC,ioos:station:NOAA.NDBC:SRST2:1,2016-04-06T05:00:00Z,29.6830,-94.0330,9.1,6.2,180.0,7.2,'1111122,1111122,1111122' 
NDBC,ioos:station:NOAA.NDBC:SRST2:1,2016-04-06T06:00:00Z,29.6830,-94.0330,9.1,6.7,180.0,8.2,'1111122,1111122,1111122' 
NDBC,ioos:station:NOAA.NDBC:SRST2:1,2016-04-06T07:00:00Z,29.6830,-94.0330,9.1,7.2,190.0,8.8,'1111122,1111122,1111122' 
NDBC,ioos:station:NOAA.NDBC:SRST2:1,2016-04-06T08:00:00Z,29.6830,-94.0330,9.1,5.1,180.0,7.2,'1111122,1111122,1111122' 
NDBC,ioos:station:NOAA.NDBC:SRST2:1,2016-04-06T09:00:00Z,29.6830,-94.0330,9.1,7.2,180.0,8.8,'1111122,1111122,1111122' 
NDBC,ioos:station:NOAA.NDBC:SRST2:1,2016-04-06T10:00:00Z,29.6830,-94.0330,9.1,6.2,190.0,7.7,'1111122,1111122,1111122' 
NDBC,ioos:station:NOAA.NDBC:SRST2:1,2016-04-06T11:00:00Z,29.6830,-94.0330,9.1,6.2,190.0,8.2,'1111122,1111122,1111122' 
NDBC,ioos:station:NOAA.NDBC:SRST2:1,2016-04-06T12:00:00Z,29.6830,-94.0330,9.1,7.7,190.0,9.8,'1111122,1111122,1111122' 
NDBC,ioos:station:NOAA.NDBC:SRST2:1,2016-04-06T13:00:00Z,29.6830,-94.0330,9.1,7.7,200.0,9.8,'1111122,1111122,1111122' 
NDBC,ioos:station:NOAA.NDBC:SRST2:1,2016-04-06T14:00:00Z,29.6830,-94.0330,9.1,7.2,200.0,8.8,'1111122,1111122,1111122' 
NDBC,ioos:station:NOAA.NDBC:SRST2:1,2016-04-06T15:00:00Z,29.6830,-94.0330,9.1,6.7,250.0,8.2,'1111122,1111122,1111122' 
NDBC,ioos:station:NOAA.NDBC:SRST2:1,2016-04-06T16:00:00Z,29.6830,-94.0330,9.1,5.1,230.0,6.2,'1111122,1111122,1111122' 
NDBC,ioos:station:NOAA.NDBC:SRST2:1,2016-04-06T17:00:00Z,29.6830,-94.0330,9.1,6.2,220.0,7.2,'1111122,1111122,1111122' 
NDBC,ioos:station:NOAA.NDBC:SRST2:1,2016-04-06T18:00:00Z,29.6830,-94.0330,9.1,7.2,220.0,8.8,'1111122,1111122,1111122' 
NDBC,ioos:station:NOAA.NDBC:SRST2:1,2016-04-06T19:00:00Z,29.6830,-94.0330,9.1,6.7,210.0,7.7,'1111122,1111122,1111122' 
NDBC,ioos:station:NOAA.NDBC:SRST2:1,2016-04-06T20:00:00Z,29.6830,-94.0330,9.1,7.7,220.0,9.3,'1111122,1111122,1111122' 
NDBC,ioos:station:NOAA.NDBC:SRST2:1,2016-04-06T21:00:00Z,29.6830,-94.0330,9.1,7.7,220.0,9.3,'1111122,1111122,1111122' 
NDBC,ioos:station:NOAA.NDBC:SRST2:1,2016-04-06T22:00:00Z,29.6830,-94.0330,9.1,6.7,220.0,9.3,'1111122,1111122,1111122' 
NDBC,ioos:station:NOAA.NDBC:SRST2:1,2016-04-06T23:00:00Z,29.6830,-94.0330,9.1,7.7,220.0,9.8,'1111122,1111122,1111122' 
NDBC,ioos:station:NOAA.NDBC:SRST2:1,2016-04-07T00:00:00Z,29.6830,-94.0330,9.1,8.2,230.0,9.8,'1111122,1111122,1111122' 
NDBC,ioos:station:NOAA.NDBC:SRST2:1,2016-04-07T01:00:00Z,29.6830,-94.0330,9.1,6.7,230.0,8.2,'1111122,1111122,1111122' 
NDBC,ioos:station:NOAA.NDBC:SRST2:1,2016-04-07T02:00:00Z,29.6830,-94.0330,9.1,5.7,230.0,6.7,'1111122,1111122,1111122' 
NDBC,ioos:station:NOAA.NDBC:SRST2:1,2016-04-07T03:00:00Z,29.6830,-94.0330,9.1,4.6,240.0,5.1,'1111122,1111122,1111122' 
NDBC,ioos:station:NOAA.NDBC:SRST2:1,2016-04-07T04:00:00Z,29.6830,-94.0330,9.1,2.1,290.0,2.6,'1111122,1111122,1111122' 
NDBC,ioos:station:NOAA.NDBC:SRST2:1,2016-04-07T05:00:00Z,29.6830,-94.0330,9.1,2.6,300.0,2.6,'1111122,1111122,1111122' 
NDBC,ioos:station:NOAA.NDBC:SRST2:1,2016-04-07T06:00:00Z,29.6830,-94.0330,9.1,3.1,340.0,3.6,'1111122,1111122,1111122' 
NDBC,ioos:station:NOAA.NDBC:SRST2:1,2016-04-07T07:00:00Z,29.6830,-94.0330,9.1,1.5,320.0,2.1,'1111122,1111122,1111122' 
NDBC,ioos:station:NOAA.NDBC:SRST2:1,2016-04-07T08:00:00Z,29.6830,-94.0330,9.1,2.1,310.0,2.6,'1111122,1111122,1111122' 
NDBC,ioos:station:NOAA.NDBC:SRST2:1,2016-04-07T09:00:00Z,29.6830,-94.0330,9.1,2.1,300.0,2.1,'1111122,1111122,1111122' 
NDBC,ioos:station:NOAA.NDBC:SRST2:1,2016-04-07T10:00:00Z,29.6830,-94.0330,9.1,2.6,300.0,3.1,'1111122,1111122,1111122' 
NDBC,ioos:station:NOAA.NDBC:SRST2:1,2016-04-07T11:00:00Z,29.6830,-94.0330,9.1,2.1,310.0,2.1,'1111122,1111122,1111122' 
NDBC,ioos:station:NOAA.NDBC:SRST2:1,2016-04-07T12:00:00Z,29.6830,-94.0330,9.1,3.1,300.0,3.1,'1111122,1111122,1111122' 
NDBC,ioos:station:NOAA.NDBC:SRST2:1,2016-04-07T13:00:00Z,29.6830,-94.0330,9.1,1.0,310.0,1.5,'1111122,1111122,1111122' 
NDBC,ioos:station:NOAA.NDBC:SRST2:1,2016-04-07T14:00:00Z,29.6830,-94.0330,9.1,1.0,280.0,1.5,'1111122,1111122,1111122' 
NDBC,ioos:station:NOAA.NDBC:SRST2:1,2016-04-07T15:00:00Z,29.6830,-94.0330,9.1,1.0,210.0,2.1,'1111122,1111122,1111122' 
NDBC,ioos:station:NOAA.NDBC:SRST2:1,2016-04-07T16:00:00Z,29.6830,-94.0330,9.1,2.6,200.0,3.1,'1111122,1111122,1111122' 
NDBC,ioos:station:NOAA.NDBC:SRST2:1,2016-04-07T17:00:00Z,29.6830,-94.0330,9.1,4.1,200.0,4.6,'1111122,1111122,1111122' 
NDBC,ioos:station:NOAA.NDBC:SRST2:1,2016-04-07T18:00:00Z,29.6830,-94.0330,9.1,5.1,210.0,5.7,'1111122,1111122,1111122' 
NDBC,ioos:station:NOAA.NDBC:SRST2:1,2016-04-07T19:00:00Z,29.6830,-94.0330,9.1,5.1,210.0,5.7,'1111122,1111122,1111122' 
NDBC,ioos:station:NOAA.NDBC:SRST2:1,2016-04-07T20:00:00Z,29.6830,-94.0330,9.1,6.7,210.0,7.7,'1111122,1111122,1111122' 
NDBC,ioos:station:NOAA.NDBC:SRST2:1,2016-04-07T21:00:00Z,29.6830,-94.0330,9.1,5.7,210.0,7.7,'1111122,1111122,1111122' 
NDBC,ioos:station:NOAA.NDBC:SRST2:1,2016-04-07T22:00:00Z,29.6830,-94.0330,9.1,6.7,210.0,8.2,'1111122,1111122,1111122' 
NDBC,ioos:station:NOAA.NDBC:SRST2:1,2016-04-07T23:00:00Z,29.6830,-94.0330,9.1,4.1,220.0,5.1,'1111122,1111122,1111122' 
NDBC,ioos:station:NOAA.NDBC:SRST2:1,2016-04-08T00:00:00Z,29.6830,-94.0330,9.1,3.6,210.0,4.6,'1111122,1111122,1111122' 
NDBC,ioos:station:NOAA.NDBC:SRST2:1,2016-04-08T01:00:00Z,29.6830,-94.0330,9.1,3.6,220.0,4.1,'1111122,1111122,1111122' 
NDBC,ioos:station:NOAA.NDBC:SRST2:1,2016-04-08T02:00:00Z,29.6830,-94.0330,9.1,3.1,230.0,3.6,'1111122,1111122,1111122' 
NDBC,ioos:station:NOAA.NDBC:SRST2:1,2016-04-08T03:00:00Z,29.6830,-94.0330,9.1,3.1,240.0,3.6,'1111122,1111122,1111122' 
NDBC,ioos:station:NOAA.NDBC:SRST2:1,2016-04-08T04:00:00Z,29.6830,-94.0330,9.1,3.1,250.0,3.1,'1111122,1111122,1111122' 
NDBC,ioos:station:NOAA.NDBC:SRST2:1,2016-04-08T05:00:00Z,29.6830,-94.0330,9.1,3.6,260.0,3.6,'1111122,1111122,1111122' 
NDBC,ioos:station:NOAA.NDBC:SRST2:1,2016-04-08T06:00:00Z,29.6830,-94.0330,9.1,3.1,270.0,3.6,'1111122,1111122,1111122' 
NDBC,ioos:station:NOAA.NDBC:SRST2:1,2016-04-08T07:00:00Z,29.6830,-94.0330,9.1,3.6,270.0,3.6,'1111122,1111122,1111122' 
NDBC,ioos:station:NOAA.NDBC:SRST2:1,2016-04-08T08:00:00Z,29.6830,-94.0330,9.1,3.6,280.0,3.6,'1111122,1111122,1111122' 
NDBC,ioos:station:NOAA.NDBC:SRST2:1,2016-04-08T09:00:00Z,29.6830,-94.0330,9.1,3.1,310.0,3.6,'1111122,1111122,1111122' 
NDBC,ioos:station:NOAA.NDBC:SRST2:1,2016-04-08T10:00:00Z,29.6830,-94.0330,9.1,1.5,270.0,1.5,'1111122,1111122,1111122' 
NDBC,ioos:station:NOAA.NDBC:SRST2:1,2016-04-08T11:00:00Z,29.6830,-94.0330,9.1,3.1,350.0,3.6,'1111122,1111122,1111122' 
NDBC,ioos:station:NOAA.NDBC:SRST2:1,2016-04-08T12:00:00Z,29.6830,-94.0330,9.1,3.1,350.0,3.1,'1111122,1111122,1111122' 
NDBC,ioos:station:NOAA.NDBC:SRST2:1,2016-04-08T13:00:00Z,29.6830,-94.0330,9.1,3.1,360.0,3.1,'1111122,1111122,1111122' 
NDBC,ioos:station:NOAA.NDBC:SRST2:1,2016-04-08T14:00:00Z,29.6830,-94.0330,9.1,6.2,40.0,8.2,'1111122,1111122,1111122' 
NDBC,ioos:station:NOAA.NDBC:SRST2:1,2016-04-08T15:00:00Z,29.6830,-94.0330,9.1,7.7,40.0,9.3,'1111122,1111122,1111122' 
NDBC,ioos:station:NOAA.NDBC:SRST2:1,2016-04-08T16:00:00Z,29.6830,-94.0330,9.1,7.7,60.0,9.8,'1111122,1111122,1111122' 
NDBC,ioos:station:NOAA.NDBC:SRST2:1,2016-04-08T17:00:00Z,29.6830,-94.0330,9.1,7.2,30.0,10.3,'1111122,1111122,1111122' 
NDBC,ioos:station:NOAA.NDBC:SRST2:1,2016-04-08T18:00:00Z,29.6830,-94.0330,9.1,5.7,40.0,7.2,'1111122,1111122,1111122' 
NDBC,ioos:station:NOAA.NDBC:SRST2:1,2016-04-08T19:00:00Z,29.6830,-94.0330,9.1,6.2,60.0,8.2,'1111122,1111122,1111122' 
NDBC,ioos:station:NOAA.NDBC:SRST2:1,2016-04-08T20:00:00Z,29.6830,-94.0330,9.1,5.7,70.0,6.2,'1111122,1111122,1111122' 
NDBC,ioos:station:NOAA.NDBC:SRST2:1,2016-04-08T21:00:00Z,29.6830,-94.0330,9.1,4.1,160.0,5.1,'1111122,1111122,1111122' 
NDBC,ioos:station:NOAA.NDBC:SRST2:1,2016-04-08T22:00:00Z,29.6830,-94.0330,9.1,3.6,150.0,5.1,'1111122,1111122,1111122' 
NDBC,ioos:station:NOAA.NDBC:SRST2:1,2016-04-08T23:00:00Z,29.6830,-94.0330,9.1,3.6,190.0,4.1,'1111122,1111122,1111122' 
NDBC,ioos:station:NOAA.NDBC:SRST2:1,2016-04-09T00:00:00Z,29.6830,-94.0330,9.1,2.1,170.0,2.1,'1111122,1111122,1111122' 
NDBC,ioos:station:NOAA.NDBC:SRST2:1,2016-04-09T01:00:00Z,29.6830,-94.0330,9.1,1.5,150.0,1.5,'1111122,1111122,1111122' 
NDBC,ioos:station:NOAA.NDBC:SRST2:1,2016-04-09T02:00:00Z,29.6830,-94.0330,9.1,1.5,170.0,2.1,'1111122,1111122,1111122' 
NDBC,ioos:station:NOAA.NDBC:SRST2:1,2016-04-09T03:00:00Z,29.6830,-94.0330,9.1,1.0,130.0,1.0,'1111122,1111122,1111122' 
NDBC,ioos:station:NOAA.NDBC:SRST2:1,2016-04-09T04:00:00Z,29.6830,-94.0330,9.1,1.0,360.0,1.5,'1111122,1111122,1111122' 
NDBC,ioos:station:NOAA.NDBC:SRST2:1,2016-04-09T05:00:00Z,29.6830,-94.0330,9.1,1.5,360.0,1.5,'1111122,1111122,1111122' 
NDBC,ioos:station:NOAA.NDBC:SRST2:1,2016-04-09T06:00:00Z,29.6830,-94.0330,9.1,2.1,20.0,2.1,'1111122,1111122,1111122' 
NDBC,ioos:station:NOAA.NDBC:SRST2:1,2016-04-09T07:00:00Z,29.6830,-94.0330,9.1,3.1,60.0,3.1,'1111122,1111122,1111122' 
NDBC,ioos:station:NOAA.NDBC:SRST2:1,2016-04-09T08:00:00Z,29.6830,-94.0330,9.1,2.6,50.0,2.6,'1111122,1111122,1111122' 
NDBC,ioos:station:NOAA.NDBC:SRST2:1,2016-04-09T09:00:00Z,29.6830,-94.0330,9.1,4.1,50.0,4.1,'1111122,1111122,1111122' 
NDBC,ioos:station:NOAA.NDBC:SRST2:1,2016-04-09T10:00:00Z,29.6830,-94.0330,9.1,4.6,70.0,4.6,'1111122,1111122,1111122' 
NDBC,ioos:station:NOAA.NDBC:SRST2:1,2016-04-09T11:00:00Z,29.6830,-94.0330,9.1,3.1,50.0,3.1,'1111122,1111122,1111122' 
NDBC,ioos:station:NOAA.NDBC:SRST2:1,2016-04-09T12:00:00Z,29.6830,-94.0330,9.1,3.6,60.0,3.6,'1111122,1111122,1111122' 
NDBC,ioos:station:NOAA.NDBC:SRST2:1,2016-04-09T13:00:00Z,29.6830,-94.0330,9.1,2.6,80.0,2.6,'1111122,1111122,1111122' 
NDBC,ioos:station:NOAA.NDBC:SRST2:1,2016-04-09T14:00:00Z,29.6830,-94.0330,9.1,2.1,100.0,2.6,'1111122,1111122,1111122' 
NDBC,ioos:station:NOAA.NDBC:SRST2:1,2016-04-09T15:00:00Z,29.6830,-94.0330,9.1,5.7,140.0,6.7,'1111122,1111122,1111122' 
NDBC,ioos:station:NOAA.NDBC:SRST2:1,2016-04-09T16:00:00Z,29.6830,-94.0330,9.1,7.2,120.0,8.2,'1111122,1111122,1111122' 